RH
99 99 94 94 89 87 98 98 91 93 92 96 94 91 85 69 48 45 42 45 70 67 66 78 87 91 92 93 99 100 91 55 53 46 42 34 32 33 41 39 33 35 33 35 36 37 35
100 99 98 83 93 93 73 88 86 88 94 96 93 90 84 76 86 66 37 33 62 74 85 92 100 84 88 94 100 100 68 53 51 47 42 37 36 34 38 41 44 42 40 37 35 34 33
100 100 99 90 95 97 85 37 41 42 30 71 79 98 91 92 87 76 33 29 70 83 94 96 97 85 79 99 100 92 63 56 54 47 42 41 38 35 37 46 40 35 36 40 37 36 41
77 99 98 84 76 97 96 74 27 23 32 69 80 85 90 95 95 81 73 71 88 85 88 81 78 64 97 100 100 89 66 60 54 43 40 40 37 36 41 38 37 40 42 53 40 38 43
22 66 87 78 64 78 84 74 37 24 37 65 69 84 94 84 95 91 82 94 85 96 84 81 63 76 99 95 89 88 65 57 51 44 38 36 29 39 43 54 62 45 76 43 46 39 44
17 26 39 49 73 56 71 58 40 22 29 67 72 68 73 75 74 88 90 90 82 76 78 76 77 78 95 97 82 85 67 63 52 43 40 41 43 60 60 74 72 58 60 38 44 49 44
46 19 25 33 35 55 48 64 52 26 22 61 74 68 62 62 68 66 66 74 82 87 80 95 86 86 83 77 71 65 55 53 52 50 55 48 71 81 57 46 37 34 34 35 36 46 47
51 22 28 26 37 32 38 48 54 42 19 43 57 64 63 63 62 56 52 78 82 87 92 76 78 77 77 72 68 64 62 54 52 58 45 66 70 51 48 45 44 40 42 49 51 43 49
61 23 26 36 34 37 30 38 50 52 36 22 47 52 63 64 54 49 51 60 72 64 70 71 68 74 71 62 70 67 60 51 51 58 64 74 58 42 45 48 49 46 48 56 58 63 56
56 36 25 44 43 37 35 29 41 49 50 36 34 48 56 64 60 68 55 58 54 70 88 87 73 67 66 65 63 59 60 63 51 63 58 59 45 46 47 47 46 58 53 56 64 76 79
56 56 24 42 39 41 35 29 29 44 50 48 36 40 47 49 57 62 59 55 53 81 88 72 67 62 64 62 62 53 55 52 69 61 60 64 56 56 60 58 48 67 56 62 63 70 86
47 58 25 37 32 37 35 29 29 32 44 49 46 36 40 44 48 54 56 56 77 79 94 76 62 59 58 56 57 56 58 57 61 59 56 53 47 52 60 51 53 54 62 67 64 79 90
48 55 43 27 37 27 29 32 30 40 44 46 48 46 40 41 44 45 50 73 84 92 62 69 67 54 49 56 55 54 64 73 80 80 82 66 65 55 51 62 55 59 68 94 89 94 92
56 52 55 27 33 33 27 31 31 41 42 44 46 46 45 45 47 52 67 75 90 75 67 55 56 60 70 65 55 60 61 77 64 61 78 90 80 73 60 62 61 54 75 80 91 89 90
65 56 55 44 27 34 29 28 31 30 40 36 43 43 47 58 57 57 48 95 85 62 53 61 64 64 68 59 60 54 69 74 60 62 78 84 73 59 60 56 62 82 79 75 93 90 86
70 60 58 54 31 29 33 30 27 29 30 34 36 48 41 57 59 53 82 85 78 60 61 59 65 56 60 57 58 59 68 57 67 62 59 65 78 61 68 62 64 70 76 87 98 91 97
70 62 61 56 50 26 30 32 27 26 29 31 42 47 36 53 58 50 93 76 68 60 63 69 69 49 51 50 47 50 60 61 60 70 61 63 66 70 73 86 82 83 79 88 90 98 85
70 67 63 62 55 43 26 30 28 24 27 32 49 55 37 50 60 72 82 66 61 61 62 60 61 56 56 53 59 55 59 61 58 59 72 67 76 93 75 56 62 73 81 86 96 94 90
65 66 66 66 59 54 36 27 29 25 26 34 44 47 44 55 88 88 64 63 62 61 58 58 56 51 48 52 61 49 52 56 56 62 69 68 79 93 73 63 57 68 78 78 77 80 96
57 66 65 65 63 57 50 30 29 28 24 32 51 72 52 45 55 64 60 62 67 60 61 55 55 50 53 53 48 48 44 58 55 54 57 60 77 78 74 61 63 70 71 84 82 98 85
55 59 69 68 66 62 57 45 28 28 25 38 49 68 66 89 69 58 58 58 58 64 62 55 56 53 50 54 49 45 46 45 61 55 58 72 88 77 73 68 66 65 65 78 92 74 79
58 71 66 71 70 67 60 56 38 27 27 26 52 70 63 63 57 57 66 64 57 56 55 57 58 54 51 56 52 57 54 53 51 61 57 65 77 69 77 61 62 70 63 62 64 75 73
60 68 82 75 73 72 66 60 52 35 30 33 38 46 59 76 64 70 69 54 55 56 52 54 56 61 62 56 58 53 52 50 55 59 62 66 76 79 82 71 73 64 60 50 54 52 64
97 86 83 84 78 79 76 64 62 46 35 41 39 41 57 71 69 64 51 50 54 57 62 56 58 61 56 59 48 45 60 64 65 68 59 71 73 79 89 80 62 32 39 40 45 45 46
100 100 99 98 94 93 90 75 68 61 43 42 45 44 51 63 55 43 47 52 53 51 58 57 50 54 58 53 69 59 56 59 61 70 73 67 77 89 90 90 57 46 40 47 51 41 40
92 100 100 100 100 99 96 92 77 72 62 46 46 49 54 65 54 46 49 50 64 64 61 57 55 54 54 68 65 62 52 38 40 59 52 70 72 83 88 86 64 30 36 38 37 48 42
90 100 100 100 100 100 98 95 95 82 76 65 54 51 54 69 50 54 49 56 53 60 69 55 58 62 64 80 76 70 68 38 45 48 78 81 79 92 86 90 76 48 42 39 34 24 42
86 91 100 99 100 99 99 97 98 93 90 80 68 59 62 62 52 51 53 48 56 59 71 58 56 66 83 79 77 70 62 52 55 49 70 77 89 96 92 95 83 43 45 39 34 40 40
85 88 96 99 99 100 99 99 96 90 93 96 84 74 63 68 58 58 58 58 56 53 56 57 55 66 62 91 84 79 70 70 66 67 42 54 55 55 66 65 40 38 29 29 35 36 42
Wind_Speed
26 25 25 29 32 35 30 29 29 27 26 26 27 28 25 20 19 19 16 17 17 15 14 16 16 20 21 18 13 12 15 21 17 16 12 17 13 3 7 6 5 4 4 7 5 5 3
25 25 24 27 28 33 32 29 27 27 25 25 28 31 32 28 19 18 15 16 16 17 19 15 19 21 16 16 11 6 19 20 16 12 11 10 6 7 8 7 5 4 9 5 5 4 1
25 25 25 25 27 28 30 29 27 27 29 28 26 28 34 38 23 22 20 18 18 23 23 28 30 31 25 15 12 23 21 19 14 12 14 11 9 6 5 5 5 4 3 2 2 2 2
26 25 25 24 24 25 26 27 25 25 24 23 24 30 30 36 33 27 25 22 20 20 26 30 25 26 17 21 22 23 25 18 13 13 13 13 12 15 5 11 4 3 4 3 1 2 1
29 25 24 24 24 25 25 24 22 22 21 20 18 21 23 29 31 25 25 22 23 23 26 17 25 28 8 21 26 20 23 18 15 14 14 12 9 6 4 4 4 3 2 3 2 4 1
30 28 25 22 22 22 24 23 22 19 17 16 14 17 22 25 20 24 25 28 31 21 11 16 17 15 12 15 21 17 14 9 6 13 9 5 5 4 4 4 3 3 3 2 3 4 2
28 28 26 22 21 21 22 21 21 19 15 11 11 15 22 24 21 17 17 20 16 27 50 28 22 24 18 17 17 16 10 7 3 2 3 4 7 4 5 4 2 3 4 2 3 1 4
29 28 26 23 22 20 19 19 20 20 16 10 8 10 17 26 29 28 30 33 24 16 18 30 27 24 19 15 13 15 5 1 2 4 3 6 6 3 5 5 4 3 2 2 2 0 3
30 29 27 24 21 20 18 17 16 17 17 12 7 9 10 15 16 19 21 18 10 11 7 15 17 18 12 16 10 14 11 6 4 7 6 6 3 1 3 2 2 2 2 2 0 5 2
30 29 28 26 21 18 17 15 15 14 14 12 7 5 8 7 6 10 15 19 6 5 5 10 11 10 10 2 5 11 8 5 6 4 4 6 3 2 1 1 2 2 4 4 5 5 2
28 31 30 29 26 17 16 16 13 13 13 10 7 2 5 7 1 6 10 17 3 3 7 11 8 6 7 7 2 8 9 10 5 4 5 0 3 1 2 3 2 2 3 2 2 1 4
30 30 30 30 28 21 17 16 15 12 14 12 7 5 4 4 5 10 11 13 2 6 5 6 5 4 3 5 3 2 5 7 3 3 6 3 2 2 2 3 3 3 3 2 1 3 3
28 29 30 29 26 23 20 19 14 14 14 15 12 7 5 6 8 11 12 3 6 7 1 4 3 4 9 5 3 3 3 5 3 5 4 3 2 1 1 1 2 1 2 3 2 1 5
26 27 28 29 27 23 21 20 14 10 13 16 16 14 11 10 9 9 5 5 10 5 2 3 2 2 3 4 2 3 2 4 7 3 2 3 5 5 4 3 1 1 2 2 4 2 4
24 26 27 28 27 24 20 19 16 8 5 9 10 16 17 13 12 10 6 6 6 1 3 0 2 1 1 1 2 0 4 3 3 4 3 2 1 3 2 4 2 0 1 1 1 3 4
23 25 27 27 28 26 22 19 15 12 7 7 7 6 17 11 11 10 7 5 3 2 3 1 1 2 3 3 1 1 3 1 4 3 3 3 2 3 1 3 2 1 2 1 1 4 4
20 23 25 26 27 27 25 21 17 14 7 6 5 2 12 8 8 10 4 3 4 2 2 2 4 4 4 3 3 1 2 0 2 3 3 1 1 1 3 5 7 4 2 1 1 2 2
18 20 22 25 25 26 26 23 20 16 8 5 4 3 12 8 5 5 2 3 2 2 1 1 1 1 2 3 3 1 1 2 7 8 3 6 1 3 8 5 8 6 5 5 3 1 3
17 18 20 22 23 23 25 24 22 18 12 6 3 4 9 6 3 2 1 1 1 3 3 1 1 2 1 2 2 1 3 6 8 5 3 3 2 2 5 5 3 4 5 4 2 2 6
15 17 18 21 22 23 23 22 22 20 15 7 2 2 5 7 5 5 1 1 2 2 1 2 3 3 2 3 4 3 0 6 12 7 6 4 3 6 6 5 2 4 6 7 6 4 4
14 15 16 17 20 21 21 21 20 19 14 6 4 2 1 1 4 3 2 1 1 2 3 4 2 3 2 1 2 3 1 1 6 7 5 4 4 4 7 12 9 13 14 11 13 13 8
13 14 15 16 16 18 19 19 18 18 14 8 4 3 1 1 0 1 1 4 3 1 3 3 2 2 3 3 3 3 1 3 4 3 4 3 4 3 6 11 6 9 12 14 17 19 20
12 13 15 15 15 16 17 18 18 17 15 7 5 3 3 2 1 3 3 1 1 2 3 2 1 1 4 5 4 10 12 11 7 3 3 4 2 3 5 6 9 8 8 14 7 7 15
12 12 13 15 15 15 15 15 16 16 15 12 8 3 1 3 1 3 4 3 2 3 3 3 3 2 3 7 18 18 19 21 17 12 13 3 2 1 4 6 3 6 1 4 9 8 11
13 13 13 13 15 14 14 13 13 13 12 10 9 5 2 2 4 7 4 3 4 5 5 8 14 10 10 12 4 6 3 2 3 5 7 8 4 3 2 3 9 10 2 4 4 6 3
15 14 13 11 12 13 13 14 12 13 11 9 7 7 4 3 3 3 3 3 2 2 4 6 6 7 5 1 1 2 4 4 2 1 3 5 4 3 2 2 5 5 2 3 3 5 4
16 17 16 14 11 11 11 12 12 12 12 10 7 8 4 5 4 4 4 3 3 1 2 2 2 1 4 1 1 3 4 2 3 3 5 3 4 11 9 5 9 8 7 6 2 6 9
20 19 19 16 13 11 12 10 10 12 13 12 10 8 6 5 16 13 10 10 6 5 3 1 2 2 2 1 2 3 3 4 2 3 5 7 6 5 4 4 10 10 6 7 5 8 9
27 24 22 20 17 16 13 12 10 12 13 13 11 10 11 9 12 22 24 23 19 14 7 8 5 5 6 2 1 2 3 2 3 4 1 4 7 4 9 7 8 25 13 13 10 9 13
Wind_Direction
19 19 24 19 21 19 20 19 19 20 22 19 22 28 29 29 36 37 40 48 60 77 68 86 115 101 118 70 33 114 125 135 138 130 124 146 163 145 139 121 88 63 109 76 91 75 46
21 18 24 24 27 17 22 21 22 19 22 25 37 43 38 39 48 43 50 60 70 77 78 107 113 134 94 45 64 162 115 121 118 124 137 141 118 91 99 92 75 57 91 94 92 93 38
22 23 19 25 22 24 22 23 25 21 25 40 51 50 50 43 40 49 53 68 74 83 89 97 119 130 92 45 73 122 114 102 108 125 122 111 96 106 102 92 89 80 81 74 242 118 125
25 23 21 21 24 22 25 23 25 24 32 45 59 54 54 45 49 55 65 69 76 99 81 88 104 122 73 72 89 119 101 90 97 114 119 105 104 102 70 115 72 81 51 97 275 139 279
26 25 24 21 23 21 22 26 27 27 32 48 63 61 50 35 43 56 63 71 80 97 84 90 77 85 57 80 80 89 91 84 92 101 110 117 100 82 99 87 50 19 157 149 316 222 146
26 26 25 24 21 26 23 28 28 34 32 48 71 54 35 19 45 67 80 80 70 72 91 73 68 77 57 66 74 86 74 70 88 97 87 67 72 75 27 57 161 202 128 94 170 233 235
24 27 26 23 26 24 29 24 29 32 37 46 70 63 32 45 67 81 73 72 58 51 56 71 71 81 85 90 72 63 72 82 74 351 91 37 70 80 92 63 80 64 84 90 64 189 238
27 25 28 27 20 26 29 33 31 30 38 35 58 62 61 91 81 76 70 75 78 100 79 60 62 61 52 51 44 39 21 15 31 74 74 47 71 82 80 47 43 43 60 27 12 57 320
26 25 25 25 21 17 24 37 32 26 31 38 47 60 95 103 81 59 55 60 63 83 77 47 42 49 46 56 37 7 27 38 55 59 65 99 99 95 78 42 21 60 39 58 141 342 325
21 26 25 24 20 14 17 27 41 35 24 29 35 61 132 130 55 35 36 24 55 83 77 358 7 22 24 71 49 19 36 22 31 66 87 83 336 44 39 104 83 109 5 27 16 48 275
19 23 22 25 23 17 14 19 33 38 34 22 25 35 171 303 256 20 15 4 51 85 62 318 339 358 26 81 159 18 33 64 58 63 74 177 126 281 319 59 42 106 8 310 293 286 57
20 21 23 24 27 29 21 17 21 31 33 30 20 4 313 307 310 332 348 353 79 43 47 342 304 302 34 65 34 34 32 46 31 38 61 104 62 29 3 18 35 349 340 341 176 58 284
21 21 21 23 28 26 25 20 25 43 46 42 37 24 346 334 327 331 331 343 48 61 207 321 290 354 53 55 29 49 63 37 57 66 12 338 184 153 275 136 220 113 17 359 336 311 231
15 22 19 21 25 28 23 21 27 38 59 49 54 52 51 30 1 345 13 55 68 244 157 213 267 358 87 13 59 11 89 63 13 29 80 111 337 182 180 239 183 84 120 177 222 266 268
10 17 19 18 21 26 26 19 16 16 4 35 48 49 36 31 29 16 71 58 151 122 310 338 278 290 152 15 65 138 87 113 50 342 64 356 86 99 163 24 56 319 281 176 110 227 270
8 11 17 17 18 20 23 19 14 6 350 345 14 29 22 25 37 36 64 96 95 31 348 275 15 87 86 345 63 102 129 268 123 49 11 38 309 184 198 73 27 358 46 358 86 316 291
8 7 11 15 17 16 18 20 13 8 358 350 352 18 12 18 37 56 95 85 108 81 9 31 9 64 72 74 76 16 87 194 138 141 172 211 291 349 84 201 180 173 219 166 242 199 261
7 7 7 10 15 15 15 16 15 12 10 11 19 24 1 18 50 54 58 124 135 143 166 262 41 305 67 351 343 4 71 130 159 169 187 206 70 255 233 244 190 172 182 158 147 229 224
3 3 3 7 11 15 14 13 14 12 13 15 52 359 8 11 90 5 195 104 132 173 163 159 261 82 278 257 137 130 148 171 168 193 219 183 241 340 351 1 331 201 196 177 127 108 218
354 2 360 1 4 10 14 14 12 13 10 17 13 36 37 52 50 122 98 118 165 205 223 197 218 196 268 235 216 215 200 202 190 199 185 163 235 195 199 213 136 220 194 192 164 181 220
343 353 357 358 359 3 9 14 12 12 14 19 31 48 42 329 5 34 73 184 234 217 224 221 237 220 172 265 321 215 1 337 195 191 182 159 244 221 252 263 262 261 252 203 207 212 206
331 343 347 353 356 357 1 8 14 13 12 40 29 14 4 147 232 30 310 222 203 237 183 231 213 350 316 235 193 240 119 237 240 201 193 195 266 312 273 258 261 255 248 236 227 232 242
321 328 338 345 349 352 355 360 8 14 20 46 41 16 336 295 193 103 204 311 348 93 236 216 174 348 275 245 293 271 256 239 234 156 225 173 198 17 269 330 319 289 224 209 208 213 218
319 323 327 333 342 350 354 356 1 10 20 25 24 22 13 291 274 231 189 156 188 261 262 329 232 219 264 300 299 278 261 252 245 238 214 203 76 160 279 348 338 250 201 198 219 244 227
302 313 322 324 332 343 348 350 354 1 12 16 19 11 339 266 245 296 253 237 258 243 227 247 266 262 288 312 330 335 340 310 252 221 205 189 133 269 246 222 284 302 202 196 197 283 227
301 299 309 315 319 327 339 345 346 351 358 3 3 4 339 300 256 283 275 261 219 246 315 216 211 256 282 223 341 269 259 244 259 133 68 144 146 159 322 227 261 237 186 129 89 285 197
286 290 297 303 303 310 322 333 341 337 343 351 346 346 338 293 282 255 227 217 183 241 250 284 211 145 163 82 224 230 259 294 259 212 172 145 202 220 230 261 280 248 177 152 119 244 174
269 276 284 292 290 290 303 312 326 329 328 331 335 331 327 270 284 264 258 245 226 197 168 356 355 356 69 148 187 255 221 246 308 220 187 174 165 200 183 208 266 165 127 181 207 159 180
263 269 274 280 285 278 281 290 300 305 306 315 315 316 311 289 277 288 281 264 258 247 206 213 189 161 197 113 251 299 309 305 201 264 236 241 198 198 192 219 240 193 215 224 207 206 208